Location: Kawakawa
(35.3830°S, 174.0670°E)
Time: 14:02:31
(UTC+13:00)

A-11 Canister half - Pass Details

Date: 10 December 2019
Orbit: 1525 x 1684 km, 47.3° (Epoch: 17 January)

Event Time Altitude Azimuth Distance (km) Brightness Sun altitude
Rises 23:10:22 0° 246° (WSW) 4,692 12.4 -24.5°
Reaches altitude 10° 23:13:40 10° 239° (WSW) 3,715 11.8 -24.9°
Maximum altitude 23:22:29 43° 169° (S) 2,076 9.9 -25.8°
Drops below altitude 10° 23:31:28 10° 99° (E) 3,789 10.9 -26.6°
Sets 23:34:51 0° 92° (E) 4,793 11.4 -26.9°
